TIMESTAMP,CO2_1_1_1,H2O_1_1_1,TAU_1_1_1,TAU_SSITC_TEST_1_1_1,H_1_1_1,H_SSITC_TEST_1_1_1,LE_1_1_1,LE_SSITC_TEST_1_1_1,FC_1_1_1,FC_SSITC_TEST_1_1_1,WD_0_0_1,WS_0_0_1,WS_MAX_0_0_1,U_SIGMA_0_0_1,V_SIGMA_0_0_1,W_SIGMA_0_0_1,USTAR_0_0_1,MO_LENGTH_0_0_1,ZL_0_0_1,FETCH_MAX_0_0_1,FETCH_70_0_0_1,FETCH_80_0_0_1,FETCH_90_0_0_1,PA_0_0_1,RH_0_0_1,TA_0_0_1,VPD_0_0_1,T_SONIC_0_0_1,T_SONIC_SIGMA_0_0_1
[yyyymmddHHMMSS],[mmolCO2 mol-1],[mmolH2O mol-1],[kg m-1 s-2],[#],[W m-2],[#],[W m-2],[#],[umolCO2 m-2 s-1],[#],[Decimal degrees],[m s-1],[m s-1],[m s-1],[m s-1],[m s-1],[m s-1],[m],[#],[m],[m],[m],[m],[kPa],[%],[deg C],[hPa],[deg C],[deg C]
20220419003000,422.05874891452402,5.5829079196428584,0.44398136755529161,0,10.615714574651447,0,2.8130551251661413,1,0.44372929315272580,0,313.57335771915768,3.1692196915779500,8.1597050921441703,1.2999334627769255,1.0787189246008599,0.69730222292169097,0.60827567397613469,-1765.6863979228758,-1.0760687754264453E-002,112.25311952806969,205.23450379354554,245.61328341720377,307.47868530586385,93.858946690538204,94.044827586206893,-1.2234482758620970,0.33190366301536983,-1.5426124890645383,0.11905872066284129
20220419010000,421.86151312356583,5.3960390846312070,0.44815758525474853,0,12.475126541547455,1,20.458966901536566,1,1.2580661195320102,1,318.25565961566042,2.9717953316674084,8.5812091938237209,1.1954128549747338,0.95165438445848549,0.73167793835766592,0.61057661070604130,-1519.9915952473111,-1.2500069118414166E-002,108.34055663623940,198.08109097934724,237.05247528573400,296.76156938771192,93.895119784939240,93.426666666666662,-1.5916666666666401,0.35657376613590996,-1.8921957672966982,0.11135033887868835
20220419013000,421.86602678778689,5.3018757206811111,0.64522473165271088,0,-4.2185757485118351,1,3.8637640968547968,1,0.58115808276080494,0,315.40747326713495,3.1036685633205998,8.9884256770740407,1.4536924501009005,1.0939674430941828,0.80319054923239019,0.73219968264169788,7754.4203303685035,2.4502153856156886E-003,116.27963426290852,212.59625691983976,254.42342169139417,318.50793297611091,93.946140672960070,92.909999999999997,-1.7479999999999905,0.38019704900514684,-2.0552757966783020,5.6288741001581696E-002
20220419020000,421.75324653397627,5.2981276926331518,0.50189133806691133,0,-5.9549281887629482,1,14.191908712920815,2,1.1088757769756925,1,310.94009784297123,3.4190401694315335,10.020104905806246,1.6533185794682785,1.0056359412271694,0.67489883456640654,0.64563540374977813,3767.1176596456548,5.0436438987645502E-003,120.85199581051252,220.95599210878069,264.42788960639734,331.03233963234476,93.975694902126733,93.070000000000007,-1.7766666666666424,0.37083265197957588,-2.0616897057427082,5.6749256347420909E-002
20220419023000,421.25846648592153,5.1240798189409924,0.43075957358654210,0,2.4477916602469958,1,12.011401068239147,1,1.2050886273542540,0,300.48072685965752,3.6951416269410640,10.590462941084070,1.5635260236757169,1.2146387769730258,0.82833795981554803,0.59780981421786883,-7276.4118200268449,-2.6111771117333354E-003,96.458228369188262,176.35640523294839,211.05357500945524,264.21403138354992,94.003672224667653,91.359999999999999,-1.9739999999999895,0.45565363223370525,-2.2872235092499977,0.13996762576579153
20220419030000,420.93274742702346,4.9484758482870648,0.40308853340939571,0,3.1938485949476987,2,7.8424500564490405,1,0.45776203783179431,0,306.01476227834502,4.2181278856909392,9.4783649133530066,1.5163986234751565,1.2129245006952885,0.86668179978163018,0.57787402501368779,-5038.0322138993270,-3.7713137179991182E-003,90.538583915756249,165.53340719830996,198.10121059426137,247.99920811920154,94.030091049479168,90.206666666666663,-2.2699999999999818,0.50529696839683824,-2.5890157758924488,7.4077026141236513E-002
20220419033000,421.13670351118736,4.9745025169300172,0.56897986963135250,0,-5.0855754349393196,0,2.3520672139500389,1,0.45366902003867504,0,299.58769807198331,3.4247065735615156,10.822536684215201,1.4775970484287198,1.1880817773012429,0.83363128487110638,0.68645635377429515,5304.5337378181221,3.5818416733861967E-003,107.19290467098149,195.98281716203479,234.54137743302164,293.61797285382715,94.051645482421890,90.876666666666665,-2.2959999999999923,0.46982236448517256,-2.6063974978129067,4.7649617527324509E-002
20220419040000,421.28328021910085,5.0027131948661756,0.48961878523783064,0,-4.6526559268205867,0,5.1090321865028070,1,0.69077875218859097,0,292.07569900038072,3.1900311424419088,9.2521257155832934,1.3693340028235801,1.0680150844342342,0.74917187210424940,0.63677119760184120,4628.5644826618473,4.1049444317287041E-003,109.94524670799534,201.01497622016592,240.56358659424788,301.15706410234662,94.065708308810770,91.236666666666665,-2.2710000000000150,0.45211960167558463,-2.5777677095201170,4.4162510310895145E-002
20220419043000,421.50886200800898,5.1119112046434152,0.34527425912733989,0,-2.4827974431669215,1,7.8312957386245730,1,0.70330757937611421,0,289.08987152960634,3.1461532659460882,7.1677668041033797,1.2371934881758813,0.95416523589768121,0.67013609031031873,0.53478300445329396,5137.7548302462246,3.6981134031826568E-003,104.53616683259303,191.12545307038607,228.72835320341753,286.34075631691155,94.058732051613831,93.083333333333329,-2.2509999999999764,0.35737471327166304,-2.5552848631468805,3.6085038643930610E-002
20220419050000,421.48916534247331,5.1608400575833322,0.29645321887635290,0,-1.9374831380943212,1,-0.45692724283699010,2,0.62022582623123812,0,299.07605236799554,2.9355224202741415,6.9944489399208116,1.1025597280098924,0.97442530417970941,0.69072607108720263,0.49554957579427034,5238.3163992611844,3.6271195842007124E-003,96.001917592099005,175.52212359957122,210.05515297280510,262.96412547073282,94.053574519314239,93.989999999999995,-2.2540000000000191,0.31045953818013461,-2.5457672776116169,3.5782298770374289E-002
20220419053000,421.40028859149703,5.1640191836934539,0.23367600326332494,0,-3.6083985173190265,0,0.43205282243096049,0,0.52811352944059531,0,296.46693068067435,2.8979282392141887,6.0137436164145193,0.97188338173256061,0.88146963050002491,0.67233286921316648,0.43992931190407603,1968.2038090632880,9.6534718165404449E-003,89.185395871025079,163.05934787534997,195.14039346824626,244.29261642077208,94.073964409939236,93.950000000000003,-2.2370000000000232,0.31291930906058951,-2.5143734732733378,4.4452509839343742E-002
20220419060000,421.31587666737209,5.1637739917991503,0.36947802933394575,0,-1.3947515725662947,1,1.4769564421618184,1,0.78604185909675872,0,303.33246479570869,2.9853524284333588,7.3545361354386447,1.1928504469673185,0.87331279307775178,0.65095545505077901,0.55320603835419158,10125.613942525717,1.8764294301408721E-003,109.93181863532853,200.99042542066687,240.53420555760920,301.12028253095565,94.080467672309027,93.676666666666662,-2.1973333333333471,0.32801810867787934,-2.5032980083889242,3.6614758649568195E-002
20220419063000,421.27676614463223,5.1994165189535799,0.30962345175113221,0,-2.7944409529983152,0,1.1529598729537740,1,0.67716278815130704,0,299.62947823820195,2.7098757625669321,6.8262350134349763,1.1414206646660783,0.76439991549877573,0.59581664208226404,0.50639650179061302,3876.5933174499792,4.9012105330920267E-003,109.94041036141928,201.00613383615126,240.55300451895872,301.14381659979932,94.084456334974945,94.436666666666667,-2.2130000000000223,0.28825934879429954,-2.5150915317766476,3.2209329691419930E-002
20220419070000,421.80167825992010,5.2695634724689313,0.12739332261560293,0,-6.6809556872164224,1,-2.8762283546430476,2,-0.58328534070789728,2,282.47135152722450,2.2090965645367713,5.8227678965631391,0.75749515832950209,0.60658854496712677,0.46065067101652274,0.32481939175821956,427.90259075060590,4.4402629034498542E-002,94.682799944446558,173.11035582866700,207.16888292511632,259.35085786828978,94.078309938090442,95.926666666666662,-2.2443333333333157,0.21056744325469709,-2.5388164676073757,4.7045431728302278E-002
20220419073000,422.20167235639605,5.3306918158033101,0.37805401707241815,0,-6.2319331578577728,0,-0.34668899558670585,2,0.70135166524539716,1,285.10365116157919,3.2516776128208345,8.8422618635492736,1.3786229984938985,1.0036609739646316,0.80499446876059111,0.55970260344114919,2346.7955411250841,8.0961462841757214E-003,93.623838830845401,171.17423717467940,204.85184338789725,256.45019931760515,94.067244080946182,96.303333333333327,-2.1429999999999723,0.19253400592815581,-2.4181168513827629,4.3340863297364710E-002
20220419080000,421.56436005157968,5.2559572903650862,0.48260854327340852,0,-4.2079828341398651,1,-3.4818748213481485,2,0.62592952666243651,1,289.57422842767676,4.1077054696602326,11.043122716166049,1.5080705438421631,1.1768324807446808,0.85735802458584631,0.63229129432614095,5010.3518188996395,3.7921488723266406E-003,98.142900293887919,179.43652280985185,214.73968907600283,268.82860878466010,94.058242142570649,95.606666666666669,-2.2370000000000232,0.22723286465116077,-2.5412910918842044,6.7733474999757973E-002
20220419083000,421.53157252742272,5.1578318556721570,0.47632762348141355,0,-5.4622510137797446,1,-3.6099095271549535,1,0.62990530130353284,1,288.61329096767793,3.9653723134709051,10.408420530499839,1.4965798919937607,1.1896908443678922,0.89751357336834392,0.62794862307693189,3780.8716606660078,5.0252962029007650E-003,94.093878346825619,172.03361932130596,205.88030432814637,257.73771037318221,94.060826015625011,94.996666666666670,-2.4046666666666852,0.25558980025609801,-2.7368136359320943,8.2878743303527652E-002
20220419090000,421.76872257620585,5.0797989434373854,0.77903477466159921,0,1.4397309983493833,0,-1.9220318628053383,1,0.53656968519791670,0,290.75586925586833,3.8707461230474656,9.8007878466080207,1.6885032056053002,1.3637798070259128,0.99691977064561232,0.80272393781575047,-29967.423286999310,-6.3402181155303801E-004,105.28820071084628,192.50041084873672,230.37382649498664,288.40069361899219,94.075181116970484,94.826666666666668,-2.5840000000000032,0.26078225923405457,-2.9136659059877275,5.9319249224599191E-002
20220419093000,421.95420373189864,5.0058245456471449,0.68373280332737008,0,-2.2175078508178632,2,0.35026174839230950,0,0.88998710598071218,0,293.86657960360446,3.7409665830725323,9.6818089219146408,1.5992530868436607,1.1780336436166277,0.90240637683157343,0.75169901776876202,15980.658105207187,1.1889372687229308E-003,108.18532686153237,197.79728144318540,236.71282775691523,296.33637098567277,94.106041009982647,94.430000000000007,-2.7206666666666592,0.27794240528272440,-3.0688959240383156,6.7488793443417058E-002
20220419100000,421.96975492197566,4.9133895496789544,0.58389673885098325,0,-4.7345389621959590,1,-7.2956424022987916,2,0.23377245128309720,2,307.67741562323931,3.3912032984338016,10.186084187142850,1.6367743242991843,1.2313691594939467,0.84380310049263296,0.69426089112847023,5898.0811589780715,3.2213866659122114E-003,107.12236875047208,195.85385500306555,234.38704266613047,293.42476403970909,94.136413341579853,94.173333333333332,-2.9303333333333512,0.28625135766530835,-3.2762076064216217,7.8850199876244725E-002
20220419103000,421.86593574751731,4.7923386701512563,0.69544444001878525,0,-1.4674848002815397,2,-4.1350177763021083,2,0.59584916459689696,1,306.46679443763765,3.6717447960906364,9.5334251815951419,1.6225674839354585,1.1726674822818461,0.82393984407200505,0.75722475871047867,24693.996630781068,7.6941777728747635E-004,117.03569547281425,213.97857794490270,256.07770690867846,320.57890176352578,94.160710453559034,93.553333333333342,-3.1730000000000018,0.31103528260197666,-3.5364876416524567,0.10502906739831772
20220419110000,421.66006330651180,4.6782448650370902,0.60276950731792878,0,10.925517490082385,1,8.6230985574046617,2,1.2791631496838709,1,294.00167606879825,3.5081695116443066,10.258342147719253,1.5375597333983742,1.1002121627473811,0.82387527605170952,0.70458183636421823,-2672.3920707463544,-7.1097352098839365E-003,110.48692283150477,202.00533293268001,241.74879063849349,302.64079892431397,94.180894817057307,92.900000000000006,-3.3990000000000009,0.33682543237626816,-3.7706273218790329,7.0698473884475185E-002
20220419113000,421.10726519501321,4.4847950108928663,0.67758168121513673,0,7.1211604416973042,0,7.3839901275810735,1,1.0452071494891688,0,288.12580547821563,4.3923334306262616,11.320398654945622,1.7649370057606399,1.3558038558157490,1.0091417557325209,0.74662213690370949,-4879.3253586587898,-3.8939809509285616E-003,98.395185416996398,179.89778047710729,215.29169669685555,269.51965682236050,94.203605886718762,90.476666666666659,-3.6070000000000277,0.44481456271597269,-4.0125458985787645,8.1632444038739024E-002
20220419120000,420.72370076765816,4.2221123115024568,0.53811037039929999,0,3.0718142123728485,2,6.9994840756869134,0,0.73425312317980418,0,299.18157242118707,3.8675240431236917,10.276747349521868,1.4809183132554065,1.3511857980358051,0.87347801942828807,0.66491311675964793,-7991.0599327505606,-2.3776570517423348E-003,100.66192597952869,184.04210516523932,220.25139487325498,275.72861040001692,94.238935093532987,86.709999999999994,-3.8399999999999750,0.61000363870377727,-4.2814453307257736,6.7386173724461013E-002
20220419123000,420.72281885274657,4.2603303774816803,0.42590101401335129,0,10.053317085936154,1,14.971561105748661,1,0.48014358539952945,1,302.82334146898472,2.7007781219334164,7.7834765933131145,1.3648393588023122,0.90746626900848537,0.68225644778617411,0.59145200097326966,-1718.6767504712536,-1.1055016596221648E-002,111.69465348955679,204.21344976153637,244.39134252172732,305.94896030550888,94.250482515190981,87.836666666666673,-3.8903333333333308,0.55618606384644975,-4.3194955465528437,4.4955723866228182E-002
20220419130000,420.71048984835687,4.2779214617286145,0.54431635758083874,0,23.384785276316755,0,0.95352229174637604,2,0.17634674190406743,2,310.36168097132997,3.4236709978124855,11.275493518719912,1.4905016149539643,1.2011417764292369,0.81705048807747382,0.66876326980577960,-1068.1298866557786,-1.7788098842068112E-002,106.67771748996600,195.04089068461451,233.41413201092868,292.20679534917468,94.248494979353055,87.579999999999998,-3.7966666666666811,0.57192669137341856,-4.2679525019672155,6.9853593523386395E-002
20220419133000,420.41386796522727,3.9108105836018576,1.0236950092781218,0,33.236140450939530,0,48.610469509878179,1,1.4086910257280973,1,309.53842366403723,4.0258800492684905,11.426567743536921,1.8021368308863834,1.3785001055142503,0.98196581872531108,0.91700332530188955,-1937.4407428075478,-9.8067515460973920E-003,118.54262273454673,216.73372158914941,259.37491017733646,324.70660899551234,94.252113888454858,80.235666666666674,-3.8246666666666442,0.90821582484332053,-4.3861811718410877,0.10831998475337938
20220419140000,420.33911328381373,3.9529552085219986,0.80437351133698776,0,69.909068063589004,0,21.599514815558376,0,1.4353004691436440,0,324.82978852998332,3.8114241562408440,11.333312231420736,1.7391150176861794,1.2173741103936153,0.93869457843930859,0.81310576057071693,-642.12465617362557,-2.9589270272254654E-002,111.62284372566202,204.08215861058721,244.23422054626906,305.75226223700696,94.246586495008685,80.222999999999999,-3.6803333333333512,0.91868265515787184,-4.3050078387789767,0.15945033164283556
20220419143000,420.23572462618489,3.9703669621228590,0.67062433434248470,0,102.84653853468483,0,48.161051655570922,0,0.73434006825504927,1,307.54317972875316,3.5007951866424811,10.281146772313479,1.6192054508718619,1.3104847330219400,0.89583942264392702,0.74291202790679201,-332.89397306405652,-5.7075229764955701E-002,107.80047522498398,197.09364990944087,235.87076052102432,295.28220272967064,94.237136410104810,78.672333333333341,-3.3620000000000232,1.0145898698415436,-4.0187023102008084,0.21666014640419173
20220419150000,419.90248608428436,3.7832410011204205,0.60764584023490886,0,72.683584814409571,0,22.774286435851796,1,-0.43290267308280561,2,308.39094584018596,3.8122958528782434,9.3016626504983329,1.7271256240648052,1.2439494046941573,0.86383114349297774,0.70716516678083396,-406.29402655854005,-4.6764162793474943E-002,106.69117596422049,195.06549706791193,233.44357956717772,292.24366019522432,94.250364986111109,74.671333333333337,-3.3076666666666483,1.2098233160690239,-3.9388348719278383,0.19355047282242768
20220419153000,419.43245416883082,3.6850271641571268,1.1305510270511572,0,198.02978630061358,0,73.587818133065412,0,0.81853154042195708,0,325.17999897408015,4.0567601850528208,10.008607683023021,1.8651833956505270,1.3919195706935648,1.0165983489927384,0.96547501856265883,-379.53016831443989,-5.0061896487392121E-002,120.15122764447692,219.67476440272424,262.89458727236985,329.11282705841626,94.263602368923614,69.843333333333334,-2.7616666666666561,1.5002360007819955,-3.6084271002875425,0.30981613497672866
20220419160000,418.94841077803665,3.5048819000413562,0.62472936173988847,0,144.81872899216751,0,40.904932667342493,0,-0.40508632677328987,2,309.42985055662837,3.6881774795460669,10.479583773174710,1.6527694718277945,1.4874617566313166,0.96406292154161000,0.71846083063404687,-213.87154648479716,-8.8838371968056981E-002,98.967607771311108,180.94435110554079,216.54417444122225,271.08761033389180,94.270902213758689,63.475999999999999,-2.1473333333333358,1.9016750738848367,-2.9869221106634427,0.45568633254732721
20220419163000,418.76129616056369,3.4749345028434528,1.0448465470110764,0,247.77356983256314,0,77.546273971922517,0,1.2714298301337499E-003,2,317.96429028133525,3.4214056353210496,11.231863421167125,1.9223333388083395,1.4220462539895042,0.93750595842928242,0.93033808694153064,-271.41475229470410,-7.0003564063347831E-002,124.44811167130290,227.53083882463395,272.29630188599145,340.88265810662904,94.269643831163194,59.784333333333336,-1.4513333333333094,2.2041586488929377,-2.4195342356363767,0.44824792724851376
20220419170000,418.61820728541130,3.4579737114161397,1.0259108584595433,0,315.06181735652433,0,51.355238171108830,0,-3.4962775288026617,2,286.80123044681852,3.4679051638946516,9.3834104940204899,1.7834260630370691,1.7994113277777626,1.0085606244354361,0.92229784073295418,-207.93895723559280,-9.1372969512745927E-002,116.57092599133573,213.12883110213656,255.06077696625931,319.30582614891381,94.255061207465275,58.562666666666665,-1.2389999999999759,2.3068204942515358,-2.1565231577554869,0.52334551101070292
20220419173000,418.50285638667737,3.4758169178566010,0.65519455516820679,0,347.45000073949217,0,62.220986675476468,0,0.50155686815435419,0,304.88094635098076,3.5326504674793378,8.3458873152852782,1.4573080168207371,1.4591491905713556,0.90550202624005982,0.73763854408906493,-96.464518835786137,-0.19696361138072077,106.27184982761555,194.29883515298619,232.52608106319684,291.09506094257341,94.257303867484865,57.026666666666671,-0.80566666666663878,2.4695023303475292,-1.9355776942437615,0.57199473036971049
20220419180000,418.26003727687123,3.3286188738684617,0.73571152472665169,0,336.27460795732662,0,54.588290465972321,0,-1.5412864262071242,2,297.83112571654800,3.1998632960077806,11.375371531265255,1.6812025066010248,1.6180080549278020,0.95548843078591272,0.78242845877365175,-118.93826463204744,-0.15974673969541445,106.71617835150391,195.11120940596845,233.49828556073734,292.31214560751158,94.245080261718741,52.561000000000000,-0.28300000000001546,2.8321167048235032,-1.3949160944620758,0.60468811957823743
20220419183000,418.40482321575229,3.3804532784194818,0.65817811369066925,0,289.23453840536769,0,46.895433114336903,0,-1.6350186204738839,2,312.20033244660749,2.4579219105853700,9.7091834346458761,1.5303315724359958,1.2519972006679008,0.82835334427888252,0.74046859728881587,-117.21041245144244,-0.16210163928798785,114.46895338116697,209.28575478096818,250.46159614520889,313.54819751960866,94.247895378038208,52.192333333333330,2.6666666666642413E-002,2.9191332030240500,-0.94851090579561514,0.54053242932843981
20220419190000,418.42392781690666,3.1918827881970180,0.75495409496612309,0,268.31134858805609,0,55.363501031018167,0,0.54635541842089719,1,289.72782829258165,3.6532173101559948,11.011267866175269,1.8277524124011970,1.7381595638230147,0.95725905836274849,0.79351379830852242,-155.47638054621322,-0.12220505734215051,107.76429659152811,197.02750382890019,235.79160055656186,295.18310384762668,94.234144588985316,48.192000000000000,0.33266666666668243,3.2343989224828373,-0.83356388696347494,0.50962295493124388
20220419193000,418.17013161205784,3.1144219345226798,0.44491130109055865,0,233.53608142112637,0,15.073696083698676,1,-1.0613624926904774,0,290.93733483604126,3.0968730625291458,9.5776068487574015,1.5690727820243915,1.3283663489333908,0.85135308534418186,0.60948986036905461,-80.931509099483762,-0.23476641188840991,95.838568092518557,175.22346861668734,209.69773923584006,262.51668588430948,94.214689933348268,46.175333333333334,0.58100000000001728,3.4212425251725982,-0.49409065074888758,0.52437061700945398
20220419200000,418.24451021197268,3.1471787041628212,0.72564084570085374,0,333.99637849397067,0,66.250379999923567,0,-1.2548672397113203,1,302.15195217651120,3.1084799456079031,7.7765653373749499,1.5658046738503808,1.4994082622909990,0.86442040022424538,0.77891593927160008,-118.09772229021785,-0.16088371250131883,115.20394908660616,210.62956134536816,252.06978938981018,315.56146462669682,94.194986801866321,45.593333333333334,0.89866666666665651,3.5384775689103272,-0.25407072194411739,0.55147171431966069
20220419203000,418.19338420441818,3.0855436900808435,0.49184637318461821,1,252.36653071440841,0,20.834579190070475,0,-0.95263967202518551,1,303.78782947130310,2.6173465255286756,7.3878669995523012,1.2711109818531194,1.5268662182205468,0.77102990707506247,0.64148535511048121,-87.304171068669433,-0.21762992268783443,108.08049310434426,197.60561190003355,236.48344826684686,296.04921508326765,94.194407751953136,44.110333333333337,1.0830000000000268,3.6835322718140300,-1.5127065022738861E-002,0.49765183883469905
20220419210000,418.22069675211884,3.1015372128786187,0.54528093044405102,0,247.78857144409338,0,24.152396422315263,0,-1.0983237397408909,1,318.58908940534411,2.7771081573945442,7.9913364055298457,1.3032923623832762,1.2972435080421518,0.74196989622127019,0.67574937510178035,-103.93668511978827,-0.18280359796064569,116.19150951639051,212.43513677725849,254.23060203138300,318.26654564259019,94.189566180772573,43.573666666666668,1.3243333333333567,3.7840249868517253,0.18280937533910446,0.46454421964669745
20220419213000,418.32562107484529,3.1305318967032965,0.67514174803867177,0,210.89493360768637,0,30.779734212000417,0,-1.2441925273190297,0,297.63311649340642,2.9957055321623232,7.8805236376307244,1.5056221237354743,1.5665351687810174,0.77278380298489913,0.75219032386554596,-168.41270235235936,-0.11281809349657895,122.53797099250552,224.03849245566897,268.11685524004878,335.65048685708973,94.177903991319440,43.477333333333334,1.4830000000000041,3.8339229196095324,0.39718244594996577,0.48341629670904512
20220419220000,418.31816110331556,3.0680686421210708,0.10957158428237511,0,150.96281999695339,0,8.4912504932914050,1,-0.63782123962198123,1,330.35750401545977,2.1104091951040389,6.1167545491697179,1.0781131016468393,0.86385238264831776,0.64449026543153098,0.30298476325134027,-15.374708770183220,-1.2357957658910230,68.457091144378410,125.16139588132144,149.78622420339164,187.51457842268420,94.166268433810771,42.915666666666667,1.3816666666666606,3.8439522309057352,0.38959502834745763,0.37433937084487107
20220419223000,418.40689386802529,3.1500081980881545,0.26809187874351731,1,156.91688959473422,0,17.255360294860992,0,-1.0534567714122451,1,306.77406762668431,1.8720039597095717,6.1044138178638327,1.1538710192655417,1.1906149903546661,0.61582765279190521,0.47412623379080460,-56.682407619502690,-0.33520100500217070,101.57872081222983,185.71829851613197,222.25737020851815,278.23985348207373,94.170643778135940,43.335333333333331,1.6140000000000327,3.8798407453105934,0.66720585447541225,0.37871846158563094